loading
DOY 203 | 2024-07-21T11:23:37Z

OBJECT G, 60209

Orbit data source: Space-Track

OBJECT G, 60209 is an American satellite in LEO that was launched on Thu, 04 Jul 2024 UTC via a Firefly Alpha launch vehicle from the Air Force Western Test Range (AFWTR). Unknown objects in Earth's orbit typically refer to objects detected orbiting the Earth but have not yet been identified or cataloged. These objects could be anything from previously untracked satellites, spent rocket stages, debris from satellite collisions, or even natural meteoroids temporarily captured by Earth's gravity.

Loading next visibility...
Loading greatness...
OBJECT G details
NORAD ID60209
COSPAR ID
2024-125G
Orbit
LEO
Last TLE update4 days ago
Origin
Flag of USUME (US)
ManufacturerUME
BusCubesat 3U
MotorUnknown
Mass3 kg wet, 3 kg dry
Launch date (UTC)
2024-07-04 (2 weeks ago)
Launch vehicle
Firefly Alpha
Launch site
Air Force Western Test Range (AFWTR)
Object typeUnknown
Radar Cross SectionSmall (<0.1 m²)
Predictive object data (real-time)
Latitude30.03164°
Longitude72.05803°
Altitude528.89 km
Speed7.592 km/s
Apparent Right ascension07h 01m 27s
Apparent Declination-8° 13' 35"
Sunlit
Object is in daylight
Predictive observer data (real-time)
Local Sidereal Time00:22:02
Azimuth90.062° ESE
Elevation-12.81°
Doppler factor1
Orbital elements
Apogee522.61 km
Perigee487.099 km
Semi-major axis6,882.991 km
Eccentricity0.0025796
Inclination97.3222°
RAAN51.6252°
Arg. of periapsis215.8933°
True anomaly144.22996°
Mean anomaly144.0569°
Mean motion3.80082 °/min
BSTAR0.00071734
Period94.72 mins
Definitive object data (Epoch: 2024-07-17T02:56:28.599Z)
Latitude-0.00014°
Longitude72.07445°
Altitude525.383 km
Speed7.592 km/s
True Right ascension03h 26m 30s
True Declination0° 00' 01"
Sunlit
Object was in daylight at TLE epoch
TLE from 4 days ago
0 OBJECT G
1 60209U 24125G   24199.12255324  .00015234  00000-0  71734-3 0  9990
2 60209  97.3222  51.6252 0025796 215.8933 144.0569 15.19321115  1969
Epoch: 2024-07-17T02:56Z
No data available

OBJECT G Visibility forecast

Observer location: 39.9160978°, -105.1181434

OBJECT G is not visible in the next 10 days
Span
Click to sort rows by Start time (UTC) header in descending order
Start Az.
Max El. time (UTC)
Max El. Az.
Max El.
End time (UTC)
End Az.